N221S KASE-KSAN

Flight info

Callsign N221S
Flight time 1h 49m
Altitude 43000
Route LINDZ1 LINDZ JNC IBSKI TBC PLNDL Q86 TTRUE LUCKI1
Aircraft C25C/M-SDE2E3FGHRWXY/LB1

Departure

Time 2026-03-24 02:14
Airport Aspen-Pitkin County Airport (Sardy Field) (KASE)

Arrival

Time 2026-03-24 04:03
Airport San Diego International Airport (KSAN)
Time Latitude Longitude Altitude Speed Heading
2026-03-24 01:36 39.22091 -106.86620 7763 ft 0 kts 36°
2026-03-24 02:08 39.22093 -106.86616 7764 ft 2 kts 60°
2026-03-24 02:09 39.22079 -106.86595 7765 ft 5 kts 168°
2026-03-24 02:09 39.22030 -106.86606 7771 ft 6 kts 189°
2026-03-24 02:09 39.21992 -106.86602 7777 ft 9 kts 159°
2026-03-24 02:09 39.21894 -106.86556 7771 ft 20 kts 160°
2026-03-24 02:10 39.21778 -106.86506 7788 ft 14 kts 162°
2026-03-24 02:10 39.21711 -106.86478 7800 ft 12 kts 160°
2026-03-24 02:10 39.21596 -106.86421 7810 ft 23 kts 159°
2026-03-24 02:10 39.21438 -106.86346 7820 ft 22 kts 160°
2026-03-24 02:11 39.21327 -106.86294 7828 ft 13 kts 160°
2026-03-24 02:11 39.21253 -106.86259 7832 ft 11 kts 160°
2026-03-24 02:11 39.21216 -106.86251 7834 ft 0 kts 191°
2026-03-24 02:12 39.21214 -106.86252 7834 ft 2 kts 192°
2026-03-24 02:12 39.21177 -106.86305 7835 ft 14 kts 253°
2026-03-24 02:13 39.21184 -106.86345 7831 ft 1 kts 342°
2026-03-24 02:13 39.21280 -106.86390 7828 ft 50 kts 339°
2026-03-24 02:13 39.21921 -106.86695 7781 ft 143 kts 340°
2026-03-24 02:13 39.23061 -106.87229 8109 ft 195 kts 341°
2026-03-24 02:14 39.24475 -106.87787 8930 ft 225 kts 342°
2026-03-24 02:14 39.25909 -106.88354 10311 ft 220 kts 326°
2026-03-24 02:14 39.26963 -106.89861 11177 ft 240 kts 297°
2026-03-24 02:14 39.27520 -106.91960 11906 ft 253 kts 283°
2026-03-24 02:15 39.27963 -106.94163 12887 ft 254 kts 282°
2026-03-24 02:15 39.28376 -106.96390 13811 ft 256 kts 282°
2026-03-24 02:15 39.28770 -106.98629 14709 ft 255 kts 281°
2026-03-24 02:15 39.29162 -107.00876 15566 ft 259 kts 284°
2026-03-24 02:16 39.29991 -107.03038 15799 ft 288 kts 305°
2026-03-24 02:16 39.31372 -107.05063 15772 ft 312 kts 307°
2026-03-24 02:16 39.32866 -107.07239 15781 ft 334 kts 309°
2026-03-24 02:16 39.34492 -107.09482 15776 ft 346 kts 309°
2026-03-24 02:17 39.36081 -107.11793 15776 ft 342 kts 306°
2026-03-24 02:17 39.37242 -107.14418 15786 ft 334 kts 290°
2026-03-24 02:17 39.37890 -107.17283 15797 ft 332 kts 277°
2026-03-24 02:17 39.37922 -107.20213 15954 ft 325 kts 266°
2026-03-24 02:18 39.37453 -107.22988 16847 ft 299 kts 258°
2026-03-24 02:18 39.37012 -107.25456 18156 ft 272 kts 262°
2026-03-24 02:18 39.36559 -107.27756 19260 ft 263 kts 261°
2026-03-24 02:18 39.36105 -107.30083 19808 ft 270 kts 261°
2026-03-24 02:19 39.35666 -107.32523 20053 ft 284 kts 263°
2026-03-24 02:19 39.35134 -107.35012 20724 ft 290 kts 259°
2026-03-24 02:19 39.34616 -107.37536 21329 ft 292 kts 263°
2026-03-24 02:19 39.34150 -107.40109 21960 ft 296 kts 262°
2026-03-24 02:20 39.33646 -107.42704 22617 ft 300 kts 262°
2026-03-24 02:20 39.33119 -107.45336 23241 ft 304 kts 263°
2026-03-24 02:20 39.32597 -107.48000 23841 ft 308 kts 263°
2026-03-24 02:20 39.32073 -107.50655 24392 ft 310 kts 263°
2026-03-24 02:21 39.31542 -107.53354 24973 ft 311 kts 264°
2026-03-24 02:21 39.31005 -107.56076 25544 ft 314 kts 264°
2026-03-24 02:21 39.30466 -107.58822 26123 ft 317 kts 264°
2026-03-24 02:21 39.29914 -107.61593 26654 ft 320 kts 264°
2026-03-24 02:22 39.29363 -107.64378 27279 ft 321 kts 264°
2026-03-24 02:22 39.28807 -107.67180 27804 ft 323 kts 265°
2026-03-24 02:22 39.28249 -107.70002 28345 ft 326 kts 265°
2026-03-24 02:22 39.27683 -107.72834 29004 ft 325 kts 265°
2026-03-24 02:23 39.27122 -107.75647 29669 ft 323 kts 265°
2026-03-24 02:23 39.26562 -107.78464 30254 ft 324 kts 266°
2026-03-24 02:23 39.25998 -107.81278 30814 ft 323 kts 266°
2026-03-24 02:23 39.25441 -107.84085 31347 ft 323 kts 266°
2026-03-24 02:24 39.24881 -107.86866 31870 ft 323 kts 265°
2026-03-24 02:24 39.24312 -107.89703 32381 ft 323 kts 265°
2026-03-24 02:24 39.23751 -107.92507 32927 ft 323 kts 265°
2026-03-24 02:24 39.23192 -107.95278 33459 ft 323 kts 265°
2026-03-24 02:25 39.22630 -107.98079 33980 ft 322 kts 265°
2026-03-24 02:25 39.22063 -108.00881 34438 ft 322 kts 265°
2026-03-24 02:25 39.21500 -108.03680 34847 ft 322 kts 265°
2026-03-24 02:25 39.20933 -108.06473 35269 ft 322 kts 266°
2026-03-24 02:26 39.20371 -108.09264 35685 ft 322 kts 266°
2026-03-24 02:26 39.19804 -108.12062 36042 ft 322 kts 266°
2026-03-24 02:26 39.19235 -108.14855 36421 ft 322 kts 266°
2026-03-24 02:27 39.18100 -108.20432 37167 ft 322 kts 266°
2026-03-24 02:27 39.17534 -108.23219 37568 ft 321 kts 266°
2026-03-24 02:27 39.16965 -108.26011 37978 ft 321 kts 266°
2026-03-24 02:27 39.16396 -108.28798 38376 ft 321 kts 266°
2026-03-24 02:28 39.15833 -108.31549 38740 ft 321 kts 266°
2026-03-24 02:28 39.15262 -108.34329 39024 ft 320 kts 266°
2026-03-24 02:28 39.14696 -108.37109 39331 ft 320 kts 266°
2026-03-24 02:28 39.14126 -108.39873 39688 ft 319 kts 266°
2026-03-24 02:29 39.13555 -108.42636 40036 ft 318 kts 266°
2026-03-24 02:29 39.12991 -108.45392 40311 ft 318 kts 266°
2026-03-24 02:29 39.12422 -108.48145 40668 ft 317 kts 266°
2026-03-24 02:29 39.11856 -108.50885 41025 ft 316 kts 266°
2026-03-24 02:30 39.11293 -108.53614 41375 ft 315 kts 266°
2026-03-24 02:30 39.10728 -108.56333 41725 ft 313 kts 266°
2026-03-24 02:30 39.10169 -108.59038 42079 ft 312 kts 266°
2026-03-24 02:30 39.09610 -108.61735 42430 ft 311 kts 266°
2026-03-24 02:31 39.09050 -108.64421 42773 ft 310 kts 267°
2026-03-24 02:31 39.08494 -108.67110 42980 ft 313 kts 267°
2026-03-24 02:31 39.07929 -108.69844 43023 ft 321 kts 266°
2026-03-24 02:31 39.07303 -108.72652 43024 ft 333 kts 262°
2026-03-24 02:32 39.06440 -108.75444 42929 ft 347 kts 257°
2026-03-24 02:32 39.05294 -108.78255 42901 ft 362 kts 251°
2026-03-24 02:32 39.03860 -108.80993 42935 ft 376 kts 244°
2026-03-24 02:32 39.02127 -108.83602 42936 ft 392 kts 237°
2026-03-24 02:33 39.00103 -108.86033 42942 ft 404 kts 232°
2026-03-24 02:33 38.95894 -108.90883 42934 ft 408 kts 233°
2026-03-24 02:34 38.91636 -108.95792 42935 ft 413 kts 233°
2026-03-24 02:34 38.87352 -109.00713 42948 ft 413 kts 232°
2026-03-24 02:35 38.83081 -109.05619 42941 ft 416 kts 232°
2026-03-24 02:35 38.78756 -109.10577 42951 ft 419 kts 232°
2026-03-24 02:36 38.74399 -109.15564 42942 ft 421 kts 232°
2026-03-24 02:36 38.70022 -109.20556 42947 ft 420 kts 232°
2026-03-24 02:37 38.65652 -109.25554 42957 ft 422 kts 232°
2026-03-24 02:37 38.61246 -109.30559 42940 ft 424 kts 231°
2026-03-24 02:38 38.56831 -109.35579 42955 ft 426 kts 231°
2026-03-24 02:38 38.52421 -109.40579 42951 ft 427 kts 231°
2026-03-24 02:39 38.47969 -109.45623 42948 ft 428 kts 231°
2026-03-24 02:39 38.43515 -109.50658 42948 ft 428 kts 231°
2026-03-24 02:40 38.39050 -109.55687 42925 ft 428 kts 231°
2026-03-24 02:40 38.34596 -109.60727 42927 ft 428 kts 230°
2026-03-24 02:41 38.30122 -109.65747 42928 ft 429 kts 230°
2026-03-24 02:41 38.25642 -109.70784 42912 ft 430 kts 230°
2026-03-24 02:42 38.21150 -109.75814 42922 ft 430 kts 230°
2026-03-24 02:42 38.16657 -109.80845 42900 ft 431 kts 230°
2026-03-24 02:43 38.12177 -109.85848 42921 ft 431 kts 230°
2026-03-24 02:43 38.07668 -109.90876 42896 ft 432 kts 230°
2026-03-24 02:44 38.03156 -109.95900 42905 ft 429 kts 230°
2026-03-24 02:44 37.98441 -110.00559 42911 ft 434 kts 220°
2026-03-24 02:45 37.93150 -110.04285 42911 ft 432 kts 217°
2026-03-24 02:45 37.87907 -110.07954 42905 ft 429 kts 217°
2026-03-24 02:46 37.82693 -110.11565 42911 ft 425 kts 217°
2026-03-24 02:46 37.77556 -110.15142 42911 ft 423 kts 217°
2026-03-24 02:47 37.72405 -110.18700 42918 ft 421 kts 216°
2026-03-24 02:47 37.67266 -110.22258 42899 ft 420 kts 217°
2026-03-24 02:48 37.62131 -110.25802 42901 ft 421 kts 216°
2026-03-24 02:48 37.56996 -110.29337 42905 ft 420 kts 217°
2026-03-24 02:49 37.51876 -110.32867 42904 ft 419 kts 216°
2026-03-24 02:49 37.46763 -110.36374 42887 ft 418 kts 216°
2026-03-24 02:50 37.41671 -110.39872 42899 ft 416 kts 216°
2026-03-24 02:50 37.37444 -110.42769 42896 ft 415 kts 216°
2026-03-24 02:51 37.32368 -110.46238 42895 ft 414 kts 216°
2026-03-24 02:51 37.27299 -110.49700 42895 ft 416 kts 216°
2026-03-24 02:52 37.22223 -110.53165 42896 ft 415 kts 215°
2026-03-24 02:52 37.17150 -110.56616 42903 ft 415 kts 216°
2026-03-24 02:53 37.12123 -110.60039 42915 ft 413 kts 215°
2026-03-24 02:53 37.07062 -110.63469 42919 ft 413 kts 215°
2026-03-24 02:54 37.02001 -110.66901 42914 ft 413 kts 215°
2026-03-24 02:54 36.96942 -110.70327 42925 ft 414 kts 215°
2026-03-24 02:55 36.91869 -110.73750 42923 ft 414 kts 215°
2026-03-24 02:55 36.86803 -110.77169 42922 ft 414 kts 215°
2026-03-24 02:56 36.81744 -110.80580 42934 ft 413 kts 215°
2026-03-24 02:56 36.76696 -110.83973 42934 ft 412 kts 214°
2026-03-24 02:57 36.71651 -110.87363 42919 ft 412 kts 214°
2026-03-24 02:57 36.66602 -110.90744 42928 ft 412 kts 214°
2026-03-24 02:58 36.61557 -110.94129 42929 ft 412 kts 214°
2026-03-24 02:58 36.56495 -110.97511 42935 ft 413 kts 214°
2026-03-24 02:59 36.51463 -111.00870 42932 ft 413 kts 214°
2026-03-24 02:59 36.46397 -111.04248 42937 ft 413 kts 214°
2026-03-24 03:00 36.41332 -111.07621 42938 ft 413 kts 214°
2026-03-24 03:00 36.36263 -111.10988 42943 ft 413 kts 214°
2026-03-24 03:01 36.31196 -111.14350 42929 ft 413 kts 214°
2026-03-24 03:01 36.26123 -111.17712 42932 ft 413 kts 213°
2026-03-24 03:02 36.21056 -111.21066 42939 ft 413 kts 213°
2026-03-24 03:02 36.15980 -111.24420 42936 ft 413 kts 213°
2026-03-24 03:03 36.11243 -111.28289 42945 ft 402 kts 230°
2026-03-24 03:03 36.09440 -111.30828 42961 ft 394 kts 241°
2026-03-24 03:03 36.08074 -111.33721 42961 ft 385 kts 252°
2026-03-24 03:04 36.06096 -111.39886 42964 ft 389 kts 254°
2026-03-24 03:04 36.03491 -111.45880 42978 ft 402 kts 244°
2026-03-24 03:05 36.00569 -111.51807 42985 ft 404 kts 248°
2026-03-24 03:05 35.97826 -111.57902 43015 ft 409 kts 246°
2026-03-24 03:06 35.94934 -111.64014 43017 ft 414 kts 246°
2026-03-24 03:06 35.92071 -111.70197 43020 ft 417 kts 246°
2026-03-24 03:07 35.89145 -111.76428 43061 ft 422 kts 246°
2026-03-24 03:07 35.86200 -111.82722 43127 ft 425 kts 245°
2026-03-24 03:08 35.83260 -111.89023 43175 ft 427 kts 246°
2026-03-24 03:08 35.80371 -111.95452 43201 ft 430 kts 246°
2026-03-24 03:09 35.77446 -112.01897 43209 ft 432 kts 246°
2026-03-24 03:09 35.74516 -112.08373 43207 ft 434 kts 246°
2026-03-24 03:10 35.71552 -112.14824 43180 ft 430 kts 245°
2026-03-24 03:10 35.68551 -112.21146 43162 ft 424 kts 245°
2026-03-24 03:11 35.65622 -112.27411 43145 ft 420 kts 245°
2026-03-24 03:11 35.62706 -112.33590 43114 ft 416 kts 245°
2026-03-24 03:12 35.59833 -112.39687 43109 ft 413 kts 245°
2026-03-24 03:12 35.56995 -112.45803 43091 ft 411 kts 245°
2026-03-24 03:13 35.54161 -112.51874 43087 ft 408 kts 245°
2026-03-24 03:13 35.51344 -112.57903 43081 ft 406 kts 245°
2026-03-24 03:14 35.48529 -112.63915 43072 ft 406 kts 245°
2026-03-24 03:14 35.45721 -112.69902 43073 ft 404 kts 245°
2026-03-24 03:15 35.42916 -112.75873 43071 ft 403 kts 245°
2026-03-24 03:15 35.40118 -112.81820 43069 ft 402 kts 244°
2026-03-24 03:16 35.37337 -112.87718 43044 ft 402 kts 244°
2026-03-24 03:16 35.34542 -112.93640 43045 ft 401 kts 244°
2026-03-24 03:17 35.31743 -112.99553 43035 ft 401 kts 244°
2026-03-24 03:17 35.28948 -113.05451 43038 ft 400 kts 244°
2026-03-24 03:18 35.26154 -113.11340 43012 ft 400 kts 244°
2026-03-24 03:18 35.23358 -113.17218 43024 ft 400 kts 244°
2026-03-24 03:19 35.20561 -113.23089 43013 ft 399 kts 244°
2026-03-24 03:19 35.17756 -113.28972 42991 ft 400 kts 244°
2026-03-24 03:20 35.14967 -113.34805 42991 ft 399 kts 244°
2026-03-24 03:20 35.12161 -113.40664 42969 ft 399 kts 244°
2026-03-24 03:21 35.09360 -113.46507 42973 ft 399 kts 243°
2026-03-24 03:21 35.06546 -113.52362 42956 ft 399 kts 243°
2026-03-24 03:22 35.03732 -113.58212 42948 ft 400 kts 243°
2026-03-24 03:22 35.00930 -113.64023 42932 ft 400 kts 243°
2026-03-24 03:23 34.98107 -113.69873 42933 ft 400 kts 243°
2026-03-24 03:23 34.95280 -113.75715 42915 ft 400 kts 243°
2026-03-24 03:24 34.92453 -113.81551 42915 ft 399 kts 243°
2026-03-24 03:24 34.89623 -113.87383 42920 ft 400 kts 243°
2026-03-24 03:25 34.86790 -113.93211 42897 ft 400 kts 242°
2026-03-24 03:25 34.83845 -113.98924 42899 ft 401 kts 241°
2026-03-24 03:26 34.80888 -114.04683 42882 ft 401 kts 241°
2026-03-24 03:26 34.77925 -114.10419 42888 ft 400 kts 241°
2026-03-24 03:27 34.74959 -114.16158 42886 ft 400 kts 240°
2026-03-24 03:27 34.71990 -114.21889 42898 ft 400 kts 240°
2026-03-24 03:28 34.69020 -114.27613 42905 ft 400 kts 240°
2026-03-24 03:28 34.66045 -114.33343 42921 ft 401 kts 240°
2026-03-24 03:29 34.63027 -114.38983 42862 ft 402 kts 234°
2026-03-24 03:29 34.59311 -114.44087 42871 ft 403 kts 230°
2026-03-24 03:30 34.55620 -114.49212 42877 ft 403 kts 231°
2026-03-24 03:30 34.50068 -114.56869 42875 ft 403 kts 231°
2026-03-24 03:31 34.46369 -114.61975 42871 ft 403 kts 231°
2026-03-24 03:31 34.42661 -114.67075 42867 ft 403 kts 231°
2026-03-24 03:32 34.38953 -114.72173 42863 ft 404 kts 231°
2026-03-24 03:32 34.35237 -114.77271 42865 ft 404 kts 231°
2026-03-24 03:33 34.31538 -114.82331 42865 ft 404 kts 231°
2026-03-24 03:33 34.27811 -114.87422 42866 ft 404 kts 231°
2026-03-24 03:34 34.24083 -114.92510 42862 ft 404 kts 231°
2026-03-24 03:34 34.20352 -114.97595 42864 ft 404 kts 230°
2026-03-24 03:35 34.16619 -115.02672 42853 ft 404 kts 230°
2026-03-24 03:35 34.12884 -115.07743 42855 ft 404 kts 230°
2026-03-24 03:36 34.09145 -115.12815 42819 ft 405 kts 230°
2026-03-24 03:36 34.07247 -115.15390 42324 ft 417 kts 230°
2026-03-24 03:36 34.05288 -115.18044 41771 ft 429 kts 230°
2026-03-24 03:37 34.03272 -115.20770 41202 ft 441 kts 229°
2026-03-24 03:37 34.01208 -115.23557 40616 ft 445 kts 229°
2026-03-24 03:37 33.99849 -115.25395 40224 ft 442 kts 229°
2026-03-24 03:37 33.97811 -115.28143 39655 ft 437 kts 229°
2026-03-24 03:38 33.95157 -115.31752 38897 ft 432 kts 229°
2026-03-24 03:38 33.93165 -115.34457 38291 ft 429 kts 228°
2026-03-24 03:38 33.91193 -115.37125 37711 ft 424 kts 228°
2026-03-24 03:38 33.89891 -115.38881 37348 ft 421 kts 228°
2026-03-24 03:39 33.87956 -115.41498 36807 ft 416 kts 229°
2026-03-24 03:39 33.86031 -115.44098 36261 ft 417 kts 229°
2026-03-24 03:39 33.84097 -115.46715 35714 ft 420 kts 229°
2026-03-24 03:39 33.82144 -115.49345 35163 ft 423 kts 229°
2026-03-24 03:40 33.80180 -115.51998 34607 ft 426 kts 229°
2026-03-24 03:40 33.78199 -115.54662 34046 ft 429 kts 229°
2026-03-24 03:40 33.76210 -115.57342 33449 ft 431 kts 229°
2026-03-24 03:40 33.74208 -115.60034 32876 ft 431 kts 229°
2026-03-24 03:41 33.72209 -115.62722 32307 ft 432 kts 229°
2026-03-24 03:41 33.70207 -115.65409 31742 ft 431 kts 229°
2026-03-24 03:41 33.68195 -115.68079 31172 ft 432 kts 228°
2026-03-24 03:41 33.66164 -115.70740 30602 ft 432 kts 228°
2026-03-24 03:42 33.64138 -115.73413 30031 ft 433 kts 228°
2026-03-24 03:42 33.62125 -115.76099 29410 ft 432 kts 230°
2026-03-24 03:42 33.60347 -115.78997 28842 ft 430 kts 237°
2026-03-24 03:42 33.58699 -115.81976 28278 ft 428 kts 238°
2026-03-24 03:43 33.57041 -115.84938 27714 ft 426 kts 236°
2026-03-24 03:43 33.55333 -115.87837 27152 ft 425 kts 236°
2026-03-24 03:43 33.53655 -115.90704 26595 ft 424 kts 236°
2026-03-24 03:43 33.51983 -115.93605 26037 ft 422 kts 236°
2026-03-24 03:44 33.50319 -115.96506 25509 ft 421 kts 236°
2026-03-24 03:44 33.48650 -115.99377 25013 ft 419 kts 236°
2026-03-24 03:44 33.47008 -116.02209 24914 ft 407 kts 236°
2026-03-24 03:44 33.45413 -116.04947 24896 ft 394 kts 236°
2026-03-24 03:45 33.43858 -116.07638 24612 ft 392 kts 236°
2026-03-24 03:45 33.42301 -116.10312 24271 ft 391 kts 236°
2026-03-24 03:45 33.40751 -116.12985 23935 ft 391 kts 236°
2026-03-24 03:45 33.39197 -116.15647 23615 ft 390 kts 236°
2026-03-24 03:46 33.37673 -116.18272 23252 ft 389 kts 236°
2026-03-24 03:46 33.36126 -116.20919 22844 ft 388 kts 236°
2026-03-24 03:46 33.34582 -116.23569 22408 ft 387 kts 235°
2026-03-24 03:46 33.32675 -116.25824 21973 ft 388 kts 214°
2026-03-24 03:47 33.30318 -116.27362 21469 ft 382 kts 204°
2026-03-24 03:47 33.27887 -116.28573 20952 ft 376 kts 201°
2026-03-24 03:47 33.25485 -116.29761 20451 ft 371 kts 203°
2026-03-24 03:47 33.23194 -116.31125 19953 ft 366 kts 207°
2026-03-24 03:48 33.20947 -116.32534 19464 ft 362 kts 206°
2026-03-24 03:48 33.18695 -116.33848 18986 ft 359 kts 205°
2026-03-24 03:48 33.16451 -116.35131 18483 ft 356 kts 205°
2026-03-24 03:48 33.14225 -116.36428 17903 ft 355 kts 205°
2026-03-24 03:49 33.12012 -116.37730 17295 ft 354 kts 206°
2026-03-24 03:49 33.09805 -116.39024 16738 ft 353 kts 205°
2026-03-24 03:49 33.07602 -116.40304 16083 ft 352 kts 206°
2026-03-24 03:49 33.05436 -116.41571 15320 ft 342 kts 206°
2026-03-24 03:50 33.03329 -116.42794 14549 ft 330 kts 206°
2026-03-24 03:50 33.01312 -116.43981 13979 ft 313 kts 207°
2026-03-24 03:50 32.99522 -116.45456 13962 ft 318 kts 220°
2026-03-24 03:50 32.97799 -116.47186 13733 ft 329 kts 219°
2026-03-24 03:51 32.96052 -116.48947 13155 ft 331 kts 221°
2026-03-24 03:51 32.94320 -116.50717 12397 ft 330 kts 220°
2026-03-24 03:51 32.92584 -116.52469 11929 ft 324 kts 221°
2026-03-24 03:51 32.90871 -116.54190 11544 ft 322 kts 220°
2026-03-24 03:52 32.89161 -116.55912 11149 ft 321 kts 221°
2026-03-24 03:52 32.87459 -116.57624 10766 ft 320 kts 220°
2026-03-24 03:52 32.85763 -116.59340 10369 ft 320 kts 221°
2026-03-24 03:52 32.84083 -116.61026 9979 ft 309 kts 221°
2026-03-24 03:53 32.82480 -116.62642 9579 ft 294 kts 221°
2026-03-24 03:53 32.80950 -116.64179 9218 ft 283 kts 221°
2026-03-24 03:53 32.79473 -116.65668 8871 ft 274 kts 221°
2026-03-24 03:53 32.78056 -116.67096 8543 ft 267 kts 221°
2026-03-24 03:54 32.76888 -116.68757 8213 ft 260 kts 241°
2026-03-24 03:54 32.76002 -116.70685 7892 ft 272 kts 241°
2026-03-24 03:54 32.75072 -116.72680 7553 ft 279 kts 242°
2026-03-24 03:54 32.74129 -116.74693 7211 ft 278 kts 240°
2026-03-24 03:55 32.73197 -116.76633 6870 ft 264 kts 240°
2026-03-24 03:55 32.72316 -116.78504 6549 ft 255 kts 240°
2026-03-24 03:55 32.71455 -116.80309 6222 ft 248 kts 240°
2026-03-24 03:55 32.70655 -116.82100 5935 ft 247 kts 246°
2026-03-24 03:56 32.70075 -116.84060 5657 ft 254 kts 250°
2026-03-24 03:56 32.69426 -116.86029 5304 ft 252 kts 249°
2026-03-24 03:56 32.68843 -116.87921 5038 ft 234 kts 252°
2026-03-24 03:56 32.68391 -116.89684 4912 ft 212 kts 251°
2026-03-24 03:57 32.67876 -116.91242 4519 ft 197 kts 250°
2026-03-24 03:57 32.67418 -116.92738 4116 ft 188 kts 252°
2026-03-24 03:57 32.67339 -116.94175 3989 ft 179 kts 282°
2026-03-24 03:57 32.67666 -116.95629 3982 ft 185 kts 285°
2026-03-24 03:58 32.68029 -116.97139 3807 ft 197 kts 287°
2026-03-24 03:58 32.68429 -116.98733 3549 ft 204 kts 287°
2026-03-24 03:58 32.68829 -117.00349 3283 ft 203 kts 287°
2026-03-24 03:58 32.69203 -117.01900 3010 ft 186 kts 286°
2026-03-24 03:59 32.69553 -117.03321 2770 ft 173 kts 286°
2026-03-24 03:59 32.69863 -117.04607 2557 ft 145 kts 286°
2026-03-24 03:59 32.70133 -117.05698 2382 ft 135 kts 285°
2026-03-24 03:59 32.70392 -117.06750 2238 ft 129 kts 286°
2026-03-24 04:00 32.70637 -117.07780 2074 ft 130 kts 285°
2026-03-24 04:00 32.70894 -117.08813 1880 ft 131 kts 285°
2026-03-24 04:00 32.71147 -117.09861 1682 ft 132 kts 286°
2026-03-24 04:00 32.71392 -117.10883 1470 ft 129 kts 284°
2026-03-24 04:01 32.71636 -117.11846 1257 ft 114 kts 286°
2026-03-24 04:01 32.71866 -117.12739 1079 ft 110 kts 283°
2026-03-24 04:01 32.72065 -117.13609 918 ft 108 kts 283°
2026-03-24 04:01 32.72276 -117.14455 747 ft 107 kts 283°
2026-03-24 04:02 32.72477 -117.15307 590 ft 107 kts 283°
2026-03-24 04:02 32.72680 -117.16147 436 ft 105 kts 282°
2026-03-24 04:02 32.72880 -117.16987 262 ft 107 kts 283°
2026-03-24 04:02 32.73081 -117.17825 102 ft 105 kts 281°
2026-03-24 04:03 32.73273 -117.18624 25 ft 90 kts 283°
2026-03-24 04:03 32.73421 -117.19227 15 ft 52 kts 285°
2026-03-24 04:03 32.73453 -117.19404 17 ft 12 kts 259°
2026-03-24 04:03 32.73428 -117.19484 17 ft 1 kts 248°
2026-03-24 04:04 32.73403 -117.19510 16 ft 7 kts 182°
2026-03-24 04:04 32.73367 -117.19442 16 ft 14 kts 106°
2026-03-24 04:04 32.73339 -117.19324 16 ft 16 kts 106°
2026-03-24 04:04 32.73307 -117.19197 16 ft 16 kts 107°
2026-03-24 04:05 32.73281 -117.19086 16 ft 12 kts 105°
2026-03-24 04:05 32.73258 -117.18989 16 ft 13 kts 105°
2026-03-24 04:05 32.73233 -117.18883 16 ft 13 kts 105°
2026-03-24 04:05 32.73206 -117.18776 20 ft 14 kts 107°
2026-03-24 04:06 32.73177 -117.18662 24 ft 15 kts 107°
2026-03-24 04:06 32.73150 -117.18545 24 ft 16 kts 104°
2026-03-24 04:06 32.73160 -117.18481 24 ft 0 kts 36°
2026-03-24 04:07 32.73187 -117.18468 24 ft 11 kts 16°
2026-03-24 04:08 32.73291 -117.18433 24 ft 16 kts 16°
2026-03-24 04:08 32.73316 -117.18327 23 ft 16 kts 106°
2026-03-24 04:08 32.73285 -117.18199 23 ft 17 kts 104°
2026-03-24 04:08 32.73253 -117.18063 23 ft 17 kts 107°
2026-03-24 04:09 32.73304 -117.17969 23 ft 17 kts 15°
2026-03-24 04:09 32.73389 -117.17940 23 ft 12 kts 16°
2026-03-24 04:09 32.73417 -117.17930 23 ft 0 kts 16°